Weather History for Harbor Springs, MI

Change the Weather History Date:

Wednesday, November 21, 2012

  Actual Average (KPLN) Record (KPLN)
Temperature  
Mean Temperature 46 °F -  
Max Temperature 52 °F 38 °F 59 °F (1990)
Min Temperature 41 °F 24 °F 1 °F (2008)
Degree Days  
Heating Degree Days 18    
Moisture  
Dew Point 42 °F    
Average Humidity 79    
Maximum Humidity 95    
Minimum Humidity 62    
Precipitation  
Precipitation 0.00 in - - ()
Sea Level Pressure  
Sea Level Pressure 30.09 in    
Wind  
Wind Speed 3 mph (SW)    
Max Wind Speed 9 mph    
Max Gust Speed 16 mph    
Visibility 7 miles    
Events      
Averages and records for this station are not official NWS values.
T = Trace of Precipitation, MM = Missing Value Source: NWS Daily Summary

Daily Weather History Graph

Daily Weather History Graph

Search for Another Location

Airport:

Trip Planner

Search our weather history database for the weather conditions in past years. The results will help you decide how hot, cold, wet, or windy it might be!

Date:

Astronomy

Nov. 21, 2012 Rise Set
Actual Time 7:47 AM EST 5:03 PM EST
Civil Twilight 7:14 AM EST 5:36 PM EST
Nautical Twilight 6:38 AM EST 6:12 PM EST
Astronomical Twilight 6:03 AM EST 6:47 PM EST
Moon 1:36 PM EST (11/21) 12:47 AM EST (11/21)
Length of Visible Light 10h 21m
Length of Day
9h 16m
First Quarter, 61% of the Moon is Illuminated
Nov 21
First Quarter
Nov 28
Full
Dec 6
Last Quarter
Dec 13
New
Dec 20
First Quarter

Hourly Weather History & Observations

Time (EST) Temp. Windchill Dew Point Humidity Pressure Visibility Wind Dir Wind Speed Gust Speed Precip Events Conditions
12:15 AM 42.1 °F - 40.5 °F 94% 30.14 in 3.0 mi Calm Calm - N/A   Overcast
12:35 AM 41.9 °F - 40.5 °F 95% 30.14 in 3.0 mi Calm Calm - N/A   Overcast
12:54 AM 43.5 °F - 42.1 °F 95% 30.14 in 4.0 mi Calm Calm - N/A   Overcast
1:15 AM 44.6 °F - 43.0 °F 94% 30.14 in 4.0 mi Calm Calm - N/A   Overcast
1:35 AM 45.3 °F - 43.5 °F 93% 30.15 in 4.0 mi Calm Calm - N/A   Overcast
1:54 AM 45.1 °F - 43.2 °F 93% 30.14 in 3.0 mi Calm Calm - N/A   Overcast
2:15 AM 45.1 °F - 43.3 °F 93% 30.15 in 3.0 mi Calm Calm - N/A   Overcast
2:35 AM 45.1 °F - 43.7 °F 95% 30.14 in 3.0 mi Calm Calm - N/A   Overcast
2:54 AM 45.1 °F - 43.3 °F 93% 30.14 in 3.0 mi Calm Calm - N/A   Overcast
3:15 AM 45.1 °F - 43.3 °F 93% 30.15 in 3.0 mi Calm Calm - N/A   Overcast
3:35 AM 43.7 °F - 42.1 °F 94% 30.15 in 3.0 mi Calm Calm - N/A   Overcast
3:54 AM 45.1 °F - 43.7 °F 95% 30.14 in 3.0 mi Calm Calm - N/A   Overcast
4:15 AM 45.1 °F - 43.2 °F 93% 30.15 in 4.0 mi Calm Calm - N/A   Overcast
4:35 AM 45.1 °F - 43.0 °F 92% 30.15 in 4.0 mi Calm Calm - N/A   Overcast
4:54 AM 45.1 °F - 42.8 °F 91% 30.15 in 4.0 mi Calm Calm - N/A   Overcast
5:15 AM 45.1 °F - 43.0 °F 92% 30.15 in 4.0 mi Calm Calm - N/A   Overcast
5:35 AM 45.5 °F 44.2 °F 43.2 °F 92% 30.15 in 4.0 mi SSW 3.5 mph - N/A   Overcast
5:54 AM 45.1 °F - 42.8 °F 91% 30.15 in 4.0 mi Calm Calm - N/A   Overcast
6:15 AM 45.7 °F 44.4 °F 43.3 °F 92% 30.15 in 4.0 mi SSW 3.5 mph - N/A   Overcast
6:34 AM 45.7 °F 43.4 °F 43.2 °F 91% 30.16 in 4.0 mi SSW 4.6 mph - N/A   Overcast
6:55 AM 45.9 °F 43.6 °F 43.3 °F 91% 30.16 in 5.0 mi SSW 4.6 mph - N/A   Overcast
7:15 AM 46.0 °F 43.9 °F 43.3 °F 90% 30.15 in 5.0 mi SSW 4.6 mph - N/A   Overcast
7:34 AM 46.4 °F 43.5 °F 43.5 °F 90% 30.16 in 7.0 mi SW 5.8 mph - N/A   Overcast
7:55 AM 47.7 °F - 44.4 °F 89% 30.16 in 7.0 mi SW 8.1 mph - N/A   Overcast
8:15 AM 47.3 °F - 43.9 °F 88% 30.16 in 7.0 mi SW 5.8 mph - N/A   Overcast
8:34 AM 47.1 °F - 43.5 °F 87% 30.17 in 7.0 mi SW 6.9 mph - N/A   Overcast
8:55 AM 47.7 °F - 43.7 °F 86% 30.17 in 7.0 mi SW 8.1 mph - N/A   Overcast
9:15 AM 47.7 °F - 43.3 °F 85% 30.16 in 7.0 mi SW 5.8 mph - N/A   Overcast
9:35 AM 47.7 °F - 43.2 °F 84% 30.16 in 7.0 mi SSW 5.8 mph - N/A   Overcast
9:55 AM 47.7 °F - 43.2 °F 84% 30.16 in 7.0 mi SSW 5.8 mph - N/A   Overcast
10:15 AM 47.7 °F - 42.8 °F 83% 30.16 in 5.0 mi SW 6.9 mph - N/A   Haze
10:35 AM 47.7 °F - 41.9 °F 80% 30.16 in 4.0 mi SW 6.9 mph - N/A   Haze
10:55 AM 47.7 °F - 41.2 °F 78% 30.16 in 5.0 mi SSW 9.2 mph - N/A   Haze
11:14 AM 48.7 °F - 41.7 °F 77% 30.16 in 5.0 mi SW 6.9 mph - N/A   Haze
11:35 AM 49.1 °F - 42.1 °F 77% 30.14 in 5.0 mi SSW 6.9 mph - N/A   Haze
11:55 AM 50.2 °F - 42.6 °F 75% 30.13 in 5.0 mi SSW 6.9 mph - N/A   Haze
12:14 PM 52.7 °F - 44.4 °F 73% 30.12 in 5.0 mi SSW 6.9 mph - N/A   Haze
12:35 PM 52.7 °F - 43.9 °F 72% 30.11 in 5.0 mi SSW 5.8 mph - N/A   Haze
12:55 PM 52.7 °F - 43.9 °F 72% 30.11 in 5.0 mi SW 8.1 mph - N/A   Haze
1:14 PM 52.7 °F - 43.5 °F 71% 30.09 in 5.0 mi SW 9.2 mph - N/A   Haze
1:35 PM 52.7 °F - 43.2 °F 70% 30.09 in 5.0 mi SW 9.2 mph - N/A   Haze
1:55 PM 52.7 °F - 43.3 °F 70% 30.08 in 7.0 mi SW 8.1 mph - N/A   Clear
2:14 PM 52.9 °F - 43.0 °F 69% 30.07 in 7.0 mi SW 9.2 mph - N/A   Clear
2:35 PM 52.9 °F - 43.0 °F 69% 30.06 in 7.0 mi SW 5.8 mph - N/A   Clear
2:55 PM 52.7 °F - 43.2 °F 70% 30.06 in 7.0 mi SW 6.9 mph - N/A   Clear
3:14 PM 52.7 °F - 43.2 °F 70% 30.04 in 10.0 mi South 5.8 mph - N/A   Clear
3:35 PM 52.7 °F - 42.8 °F 69% 30.04 in 10.0 mi SSW 5.8 mph - N/A   Clear
3:55 PM 52.7 °F - 42.8 °F 69% 30.04 in 10.0 mi Calm Calm - N/A   Clear
4:14 PM 52.7 °F - 43.0 °F 70% 30.04 in 10.0 mi South 3.5 mph - N/A   Clear
4:35 PM 52.7 °F - 43.3 °F 70% 30.04 in 10.0 mi South 4.6 mph - N/A   Clear
4:55 PM 52.7 °F - 43.7 °F 71% 30.03 in 10.0 mi South 4.6 mph - N/A   Clear
5:14 PM 52.3 °F - 43.7 °F 72% 30.03 in 10.0 mi Calm Calm - N/A   Clear
5:35 PM 50.9 °F - 42.3 °F 72% 30.02 in 10.0 mi Calm Calm - N/A   Clear
5:55 PM 50.4 °F - 42.1 °F 73% 30.02 in 10.0 mi South 4.6 mph - N/A   Clear
6:14 PM 50.2 °F - 41.9 °F 73% 30.01 in 10.0 mi SSW 6.9 mph - N/A   Clear
6:35 PM 50.2 °F - 41.5 °F 72% 30.01 in 10.0 mi South 5.8 mph - N/A   Clear
6:55 PM 50.2 °F - 41.9 °F 73% 30.00 in 10.0 mi SW 6.9 mph - N/A   Clear
7:15 PM 49.5 °F - 41.5 °F 74% 30.00 in 10.0 mi SSW 8.1 mph - N/A   Clear
7:35 PM 50.2 °F - 41.4 °F 72% 29.99 in 10.0 mi South 6.9 mph - N/A   Clear
7:54 PM 49.5 °F - 40.6 °F 72% 29.99 in 10.0 mi South 6.9 mph - N/A   Clear
8:15 PM 50.2 °F - 40.3 °F 69% 29.98 in 10.0 mi South 8.1 mph - N/A   Clear
8:35 PM 50.4 °F - 38.5 °F 64% 29.98 in 10.0 mi SW 6.9 mph - N/A   Clear
8:54 PM 50.4 °F - 38.3 °F 63% 29.98 in 10.0 mi SW 5.8 mph - N/A   Clear
9:15 PM 50.7 °F - 38.1 °F 62% 29.99 in 10.0 mi WSW 8.1 mph - N/A   Clear
9:35 PM 50.2 °F - 39.0 °F 66% 29.99 in 10.0 mi WSW 9.2 mph - N/A   Clear
9:54 PM 49.3 °F - 38.5 °F 66% 29.99 in 10.0 mi WSW 6.9 mph - N/A   Clear
10:15 PM 47.7 °F - 37.8 °F 69% 29.98 in 10.0 mi SW 8.1 mph - N/A   Clear
10:35 PM 47.7 °F - 37.4 °F 68% 29.97 in 10.0 mi WSW 8.1 mph - N/A   Clear
10:54 PM 47.7 °F - 37.0 °F 67% 29.97 in 10.0 mi SW 8.1 mph - N/A   Clear
11:15 PM 47.8 °F - 36.9 °F 66% 29.97 in 10.0 mi WSW 8.1 mph - N/A   Clear
11:34 PM 47.8 °F - 37.2 °F 67% 29.97 in 10.0 mi WSW 8.1 mph - N/A   Clear
11:55 PM 47.8 °F - 37.4 °F 67% 29.96 in 10.0 mi WSW 8.1 mph 16.1 mph N/A   Clear